Year,Month,Day,Hour,Minute,Value (Times are PST for temperature in C)
2009,10,24,00,00,10.20
2009,10,24,00,01,10.10
2009,10,24,00,02,10.10
2009,10,24,00,03,10.10
2009,10,24,00,04,10.10
2009,10,24,00,05,10.10
2009,10,24,00,06,10.10
2009,10,24,00,07,10.10
2009,10,24,00,08,10.10
2009,10,24,00,09,10.00
2009,10,24,00,10,10.10
2009,10,24,00,11,10.00
2009,10,24,00,12,10.00
2009,10,24,00,13,10.00
2009,10,24,00,14,10.00
2009,10,24,00,15,9.90
2009,10,24,00,16,9.90
2009,10,24,00,17,9.90
2009,10,24,00,18,9.90
2009,10,24,00,19,9.90
2009,10,24,00,20,9.90
2009,10,24,00,21,9.90
2009,10,24,00,22,9.90
2009,10,24,00,23,9.90
2009,10,24,00,24,9.90
2009,10,24,00,25,9.90
2009,10,24,00,26,9.90
2009,10,24,00,27,9.90
2009,10,24,00,28,9.90
2009,10,24,00,29,9.90
2009,10,24,00,30,9.90
2009,10,24,00,31,9.90
2009,10,24,00,32,9.90
2009,10,24,00,33,9.90
2009,10,24,00,34,9.90
2009,10,24,00,35,9.90
2009,10,24,00,36,9.90
2009,10,24,00,37,9.90
2009,10,24,00,38,9.90
2009,10,24,00,39,9.90
2009,10,24,00,40,9.90
2009,10,24,00,41,9.90
2009,10,24,00,42,9.90
2009,10,24,00,43,9.80
2009,10,24,00,44,9.80
2009,10,24,00,45,9.80
2009,10,24,00,46,9.80
2009,10,24,00,47,9.80
2009,10,24,00,48,9.90
2009,10,24,00,49,9.90
2009,10,24,00,50,9.90
2009,10,24,00,51,9.90
2009,10,24,00,52,9.90
2009,10,24,00,53,9.90
2009,10,24,00,54,9.90
2009,10,24,00,55,9.90
2009,10,24,00,56,9.90
2009,10,24,00,57,9.90
2009,10,24,00,58,9.90
2009,10,24,00,59,9.90
2009,10,24,01,00,9.90
2009,10,24,01,01,9.90
2009,10,24,01,02,9.90
2009,10,24,01,03,9.90
2009,10,24,01,04,10.00
2009,10,24,01,05,10.00
2009,10,24,01,06,10.00
2009,10,24,01,07,10.00
2009,10,24,01,08,9.90
2009,10,24,01,09,9.90
2009,10,24,01,10,9.90
2009,10,24,01,11,10.00
2009,10,24,01,12,9.90
2009,10,24,01,13,9.90
2009,10,24,01,14,9.90
2009,10,24,01,15,9.90
2009,10,24,01,16,9.90
2009,10,24,01,17,9.90
2009,10,24,01,18,9.90
2009,10,24,01,19,9.90
2009,10,24,01,20,9.90
2009,10,24,01,21,9.90
2009,10,24,01,22,9.90
2009,10,24,01,23,9.90
2009,10,24,01,24,9.90
2009,10,24,01,25,9.90
2009,10,24,01,26,9.90
2009,10,24,01,27,9.90
2009,10,24,01,28,9.90
2009,10,24,01,29,9.80
2009,10,24,01,30,9.80
2009,10,24,01,31,9.80
2009,10,24,01,32,9.80
2009,10,24,01,33,9.80
2009,10,24,01,34,9.80
2009,10,24,01,35,9.80
2009,10,24,01,36,9.80
2009,10,24,01,37,9.80
2009,10,24,01,38,9.80
2009,10,24,01,39,9.80
2009,10,24,01,40,9.80
2009,10,24,01,41,9.80
2009,10,24,01,42,9.80
2009,10,24,01,43,9.80
2009,10,24,01,44,9.80
2009,10,24,01,45,9.80
2009,10,24,01,46,9.80
2009,10,24,01,47,9.80
2009,10,24,01,48,9.80
2009,10,24,01,49,9.80
2009,10,24,01,50,9.80
2009,10,24,01,51,9.80
2009,10,24,01,52,9.80
2009,10,24,01,53,9.80
2009,10,24,01,54,9.80
2009,10,24,01,55,9.80
2009,10,24,01,56,9.80
2009,10,24,01,57,9.80
2009,10,24,01,58,9.80
2009,10,24,01,59,9.80
2009,10,24,02,00,9.80
2009,10,24,02,01,9.80
2009,10,24,02,02,9.80
2009,10,24,02,03,9.80
2009,10,24,02,04,9.80
2009,10,24,02,05,9.80
2009,10,24,02,06,9.80
2009,10,24,02,07,9.80
2009,10,24,02,08,9.80
2009,10,24,02,09,9.80
2009,10,24,02,10,9.80
2009,10,24,02,11,9.80
2009,10,24,02,12,9.80
2009,10,24,02,13,9.80
2009,10,24,02,14,9.80
2009,10,24,02,15,9.80
2009,10,24,02,16,9.80
2009,10,24,02,17,9.80
2009,10,24,02,18,9.80
2009,10,24,02,19,9.80
2009,10,24,02,20,9.80
2009,10,24,02,21,9.80
2009,10,24,02,22,9.80
2009,10,24,02,23,9.80
2009,10,24,02,24,9.80
2009,10,24,02,25,9.80
2009,10,24,02,26,9.80
2009,10,24,02,27,9.80
2009,10,24,02,28,9.80
2009,10,24,02,29,9.80
2009,10,24,02,30,9.80
2009,10,24,02,31,9.80
2009,10,24,02,32,9.80
2009,10,24,02,33,9.80
2009,10,24,02,34,9.80
2009,10,24,02,35,9.80
2009,10,24,02,36,9.80
2009,10,24,02,37,9.80
2009,10,24,02,38,9.80
2009,10,24,02,39,9.80
2009,10,24,02,40,9.70
2009,10,24,02,41,9.70
2009,10,24,02,42,9.80
2009,10,24,02,43,9.80
2009,10,24,02,44,9.80
2009,10,24,02,45,9.80
2009,10,24,02,46,9.80
2009,10,24,02,47,9.80
2009,10,24,02,48,9.80
2009,10,24,02,49,9.80
2009,10,24,02,50,9.80
2009,10,24,02,51,9.80
2009,10,24,02,52,9.80
2009,10,24,02,53,9.80
2009,10,24,02,54,9.80
2009,10,24,02,55,9.80
2009,10,24,02,56,9.80
2009,10,24,02,57,9.80
2009,10,24,02,58,9.80
2009,10,24,02,59,9.80
2009,10,24,03,00,9.80
2009,10,24,03,01,9.80
2009,10,24,03,02,9.80
2009,10,24,03,03,9.80
2009,10,24,03,04,9.80
2009,10,24,03,05,9.80
2009,10,24,03,06,9.80
2009,10,24,03,07,9.80
2009,10,24,03,08,9.80
2009,10,24,03,09,9.80
2009,10,24,03,10,9.80
2009,10,24,03,11,9.80
2009,10,24,03,12,9.80
2009,10,24,03,13,9.80
2009,10,24,03,14,9.80
2009,10,24,03,15,9.80
2009,10,24,03,16,9.80
2009,10,24,03,17,9.80
2009,10,24,03,18,9.80
2009,10,24,03,19,9.80
2009,10,24,03,20,9.80
2009,10,24,03,21,9.80
2009,10,24,03,22,9.80
2009,10,24,03,23,9.80
2009,10,24,03,24,9.80
2009,10,24,03,25,9.80
2009,10,24,03,26,9.80
2009,10,24,03,27,9.80
2009,10,24,03,28,9.80
2009,10,24,03,29,9.80
2009,10,24,03,30,9.80
2009,10,24,03,31,9.80
2009,10,24,03,32,9.90
2009,10,24,03,33,9.90
2009,10,24,03,34,9.80
2009,10,24,03,35,9.80
2009,10,24,03,36,9.80
2009,10,24,03,37,9.80
2009,10,24,03,38,9.80
2009,10,24,03,39,9.80
2009,10,24,03,40,9.80
2009,10,24,03,41,9.80
2009,10,24,03,42,9.80
2009,10,24,03,43,9.80
2009,10,24,03,44,9.80
2009,10,24,03,45,9.80
2009,10,24,03,46,9.80
2009,10,24,03,47,9.90
2009,10,24,03,48,9.90
2009,10,24,03,49,9.90
2009,10,24,03,50,9.80
2009,10,24,03,51,9.80
2009,10,24,03,52,9.80
2009,10,24,03,53,9.80
2009,10,24,03,54,9.80
2009,10,24,03,55,9.80
2009,10,24,03,56,9.80
2009,10,24,03,57,9.80
2009,10,24,03,58,9.80
2009,10,24,03,59,9.70
2009,10,24,04,00,9.70
2009,10,24,04,01,9.70
2009,10,24,04,02,9.70
2009,10,24,04,03,9.70
2009,10,24,04,04,9.80
2009,10,24,04,05,9.80
2009,10,24,04,06,9.80
2009,10,24,04,07,9.80
2009,10,24,04,08,9.80
2009,10,24,04,09,9.80
2009,10,24,04,10,9.80
2009,10,24,04,11,9.80
2009,10,24,04,12,9.80
2009,10,24,04,13,9.80
2009,10,24,04,14,9.80
2009,10,24,04,15,9.80
2009,10,24,04,16,9.80
2009,10,24,04,17,9.80
2009,10,24,04,18,9.80
2009,10,24,04,19,9.80
2009,10,24,04,20,9.80
2009,10,24,04,21,9.80
2009,10,24,04,22,9.80
2009,10,24,04,23,9.80
2009,10,24,04,24,9.80
2009,10,24,04,25,9.80
2009,10,24,04,26,9.80
2009,10,24,04,27,9.80
2009,10,24,04,28,9.80
2009,10,24,04,29,9.80
2009,10,24,04,30,9.80
2009,10,24,04,31,9.80
2009,10,24,04,32,9.80
2009,10,24,04,33,9.80
2009,10,24,04,34,9.70
2009,10,24,04,35,9.70
2009,10,24,04,36,9.70
2009,10,24,04,37,9.70
2009,10,24,04,38,9.70
2009,10,24,04,39,9.70
2009,10,24,04,40,9.70
2009,10,24,04,41,9.70
2009,10,24,04,42,9.70
2009,10,24,04,43,9.70
2009,10,24,04,44,9.70
2009,10,24,04,45,9.70
2009,10,24,04,46,9.70
2009,10,24,04,47,9.70
2009,10,24,04,48,9.70
2009,10,24,04,49,9.70
2009,10,24,04,50,9.70
2009,10,24,04,51,9.60
2009,10,24,04,52,9.60
2009,10,24,04,53,9.60
2009,10,24,04,54,9.60
2009,10,24,04,55,9.60
2009,10,24,04,56,9.60
2009,10,24,04,57,9.60
2009,10,24,04,58,9.60
2009,10,24,04,59,9.60
2009,10,24,05,00,9.60
2009,10,24,05,01,9.60
2009,10,24,05,02,9.50
2009,10,24,05,03,9.50
2009,10,24,05,04,9.50
2009,10,24,05,05,9.50
2009,10,24,05,06,9.50
2009,10,24,05,07,9.50
2009,10,24,05,08,9.40
2009,10,24,05,09,9.40
2009,10,24,05,10,9.40
2009,10,24,05,11,9.40
2009,10,24,05,12,9.40
2009,10,24,05,13,9.40
2009,10,24,05,14,9.40
2009,10,24,05,15,9.40
2009,10,24,05,16,9.30
2009,10,24,05,17,9.30
2009,10,24,05,18,9.30
2009,10,24,05,19,9.30
2009,10,24,05,20,9.30
2009,10,24,05,21,9.30
2009,10,24,05,22,9.30
2009,10,24,05,23,9.30
2009,10,24,05,24,9.30
2009,10,24,05,25,9.30
2009,10,24,05,26,9.20
2009,10,24,05,27,9.30
2009,10,24,05,28,9.30
2009,10,24,05,29,9.20
2009,10,24,05,30,9.20
2009,10,24,05,31,9.20
2009,10,24,05,32,9.20
2009,10,24,05,33,9.20
2009,10,24,05,34,9.20
2009,10,24,05,35,9.20
2009,10,24,05,36,9.20
2009,10,24,05,37,9.20
2009,10,24,05,38,9.20
2009,10,24,05,39,9.20
2009,10,24,05,40,9.20
2009,10,24,05,41,9.20
2009,10,24,05,42,9.10
2009,10,24,05,43,9.10
2009,10,24,05,44,9.10
2009,10,24,05,45,9.10
2009,10,24,05,46,9.00
2009,10,24,05,47,9.00
2009,10,24,05,48,8.90
2009,10,24,05,49,8.90
2009,10,24,05,50,8.80
2009,10,24,05,51,8.70
2009,10,24,05,52,8.70
2009,10,24,05,53,8.60
2009,10,24,05,54,8.60
2009,10,24,05,55,8.50
2009,10,24,05,56,8.40
2009,10,24,05,57,8.30
2009,10,24,05,58,8.30
2009,10,24,05,59,8.20
2009,10,24,06,00,8.10
2009,10,24,06,01,8.00
2009,10,24,06,02,8.00
2009,10,24,06,03,7.90
2009,10,24,06,04,7.80
2009,10,24,06,05,7.70
2009,10,24,06,06,7.70
2009,10,24,06,07,7.60
2009,10,24,06,08,7.50
2009,10,24,06,09,7.50
2009,10,24,06,10,7.40
2009,10,24,06,11,7.30
2009,10,24,06,12,7.30
2009,10,24,06,13,7.20
2009,10,24,06,14,7.20
2009,10,24,06,15,7.10
2009,10,24,06,16,7.10
2009,10,24,06,17,7.00
2009,10,24,06,18,7.00
2009,10,24,06,19,6.90
2009,10,24,06,20,6.90
2009,10,24,06,21,6.90
2009,10,24,06,22,6.80
2009,10,24,06,23,6.80
2009,10,24,06,24,6.80
2009,10,24,06,25,6.70
2009,10,24,06,26,6.70
2009,10,24,06,27,6.60
2009,10,24,06,28,6.60
2009,10,24,06,29,6.50
2009,10,24,06,30,6.50
2009,10,24,06,31,6.40
2009,10,24,06,32,6.40
2009,10,24,06,33,6.40
2009,10,24,06,34,6.30
2009,10,24,06,35,6.30
2009,10,24,06,36,6.30
2009,10,24,06,37,6.30
2009,10,24,06,38,6.20
2009,10,24,06,39,6.20
2009,10,24,06,40,6.20
2009,10,24,06,41,6.20
2009,10,24,06,42,6.20
2009,10,24,06,43,6.10
2009,10,24,06,44,6.10
2009,10,24,06,45,6.10
2009,10,24,06,46,6.10
2009,10,24,06,47,6.10
2009,10,24,06,48,6.00
2009,10,24,06,49,6.00
2009,10,24,06,50,6.00
2009,10,24,06,51,6.00
2009,10,24,06,52,5.90
2009,10,24,06,53,5.90
2009,10,24,06,54,5.90
2009,10,24,06,55,5.90
2009,10,24,06,56,5.80
2009,10,24,06,57,5.80
2009,10,24,06,58,5.80
2009,10,24,06,59,5.80
2009,10,24,07,00,5.80
2009,10,24,07,01,5.80
2009,10,24,07,02,5.70
2009,10,24,07,03,5.70
2009,10,24,07,04,5.70
2009,10,24,07,05,5.70
2009,10,24,07,06,5.70
2009,10,24,07,07,5.70
2009,10,24,07,08,5.70
2009,10,24,07,09,5.70
2009,10,24,07,10,5.60
2009,10,24,07,11,5.60
2009,10,24,07,12,5.60
2009,10,24,07,13,5.60
2009,10,24,07,14,5.60
2009,10,24,07,15,5.60
2009,10,24,07,16,5.60
2009,10,24,07,17,5.60
2009,10,24,07,18,5.50
2009,10,24,07,19,5.50
2009,10,24,07,20,5.50
2009,10,24,07,21,5.40
2009,10,24,07,22,5.40
2009,10,24,07,23,5.30
2009,10,24,07,24,5.30
2009,10,24,07,25,5.30
2009,10,24,07,26,5.20
2009,10,24,07,27,5.20
2009,10,24,07,28,5.20
2009,10,24,07,29,5.10
2009,10,24,07,30,5.10
2009,10,24,07,31,5.10
2009,10,24,07,32,5.10
2009,10,24,07,33,5.10
2009,10,24,07,34,5.10
2009,10,24,07,35,5.00
2009,10,24,07,36,5.00
2009,10,24,07,37,5.00
2009,10,24,07,38,5.00
2009,10,24,07,39,5.00
2009,10,24,07,40,5.00
2009,10,24,07,41,5.00
2009,10,24,07,42,5.00
2009,10,24,07,43,5.00
2009,10,24,07,44,5.00
2009,10,24,07,45,5.00
2009,10,24,07,46,5.00
2009,10,24,07,47,5.00
2009,10,24,07,48,5.00
2009,10,24,07,49,5.00
2009,10,24,07,50,5.00
2009,10,24,07,51,5.10
2009,10,24,07,52,5.10
2009,10,24,07,53,5.10
2009,10,24,07,54,5.10
2009,10,24,07,55,5.10
2009,10,24,07,56,5.10
2009,10,24,07,57,5.10
2009,10,24,07,58,5.10
2009,10,24,07,59,5.10
2009,10,24,08,00,5.10
2009,10,24,08,01,5.10
2009,10,24,08,02,5.10
2009,10,24,08,03,5.20
2009,10,24,08,04,5.20
2009,10,24,08,05,5.20
2009,10,24,08,06,5.20
2009,10,24,08,07,5.20
2009,10,24,08,08,5.20
2009,10,24,08,09,5.20
2009,10,24,08,10,5.30
2009,10,24,08,11,5.30
2009,10,24,08,12,5.30
2009,10,24,08,13,5.30
2009,10,24,08,14,5.30
2009,10,24,08,15,5.30
2009,10,24,08,16,5.30
2009,10,24,08,17,5.40
2009,10,24,08,18,5.40
2009,10,24,08,19,5.40
2009,10,24,08,20,5.40
2009,10,24,08,21,5.40
2009,10,24,08,22,5.40
2009,10,24,08,23,5.40
2009,10,24,08,24,5.40
2009,10,24,08,25,5.40
2009,10,24,08,26,5.40
2009,10,24,08,27,5.40
2009,10,24,08,28,5.40
2009,10,24,08,29,5.40
2009,10,24,08,30,5.40
2009,10,24,08,31,5.40
2009,10,24,08,32,5.40
2009,10,24,08,33,5.40
2009,10,24,08,34,5.40
2009,10,24,08,35,5.40
2009,10,24,08,36,5.40
2009,10,24,08,37,5.40
2009,10,24,08,38,5.40
2009,10,24,08,39,5.40
2009,10,24,08,40,5.40
2009,10,24,08,41,5.40
2009,10,24,08,42,5.40
2009,10,24,08,43,5.40
2009,10,24,08,44,5.40
2009,10,24,08,45,5.40
2009,10,24,08,46,5.50
2009,10,24,08,47,5.50
2009,10,24,08,48,5.50
2009,10,24,08,49,5.60
2009,10,24,08,50,5.60
2009,10,24,08,51,5.60
2009,10,24,08,52,5.70
2009,10,24,08,53,5.70
2009,10,24,08,54,5.70
2009,10,24,08,55,5.80
2009,10,24,08,56,5.80
2009,10,24,08,57,5.80
2009,10,24,08,58,5.80
2009,10,24,08,59,5.90
2009,10,24,09,00,5.90
2009,10,24,09,01,5.90
2009,10,24,09,02,6.00
2009,10,24,09,03,6.00
2009,10,24,09,04,6.10
2009,10,24,09,05,6.10
2009,10,24,09,06,6.10
2009,10,24,09,07,6.20
2009,10,24,09,08,6.20
2009,10,24,09,09,6.20
2009,10,24,09,10,6.20
2009,10,24,09,11,6.20
2009,10,24,09,12,6.20
2009,10,24,09,13,6.30
2009,10,24,09,14,6.30
2009,10,24,09,15,6.30
2009,10,24,09,16,6.30
2009,10,24,09,17,6.40
2009,10,24,09,18,6.40
2009,10,24,09,19,6.50
2009,10,24,09,20,6.50
2009,10,24,09,21,6.50
2009,10,24,09,22,6.60
2009,10,24,09,23,6.60
2009,10,24,09,24,6.60
2009,10,24,09,25,6.70
2009,10,24,09,26,6.80
2009,10,24,09,27,6.80
2009,10,24,09,28,6.90
2009,10,24,09,29,7.00
2009,10,24,09,30,7.20
2009,10,24,09,31,7.30
2009,10,24,09,32,7.30
2009,10,24,09,33,7.40
2009,10,24,09,34,7.50
2009,10,24,09,35,7.60
2009,10,24,09,36,7.70
2009,10,24,09,37,7.70
2009,10,24,09,38,7.80
2009,10,24,09,39,7.80
2009,10,24,09,40,7.90
2009,10,24,09,41,8.00
2009,10,24,09,42,8.00
2009,10,24,09,43,8.10
2009,10,24,09,44,8.10
2009,10,24,09,45,8.20
2009,10,24,09,46,8.20
2009,10,24,09,47,8.30
2009,10,24,09,48,8.40
2009,10,24,09,49,8.40
2009,10,24,09,50,8.50
2009,10,24,09,51,8.60
2009,10,24,09,52,8.60
2009,10,24,09,53,8.70
2009,10,24,09,54,8.70
2009,10,24,09,55,8.70
2009,10,24,09,56,8.80
2009,10,24,09,57,8.80
2009,10,24,09,58,8.80
2009,10,24,09,59,8.80
2009,10,24,10,00,8.80
2009,10,24,10,01,8.80
2009,10,24,10,02,8.80
2009,10,24,10,03,8.90
2009,10,24,10,04,8.90
2009,10,24,10,05,8.90
2009,10,24,10,06,9.00
2009,10,24,10,07,9.00
2009,10,24,10,08,9.10
2009,10,24,10,09,9.10
2009,10,24,10,10,9.20
2009,10,24,10,11,9.20
2009,10,24,10,12,9.20
2009,10,24,10,13,9.20
2009,10,24,10,14,9.30
2009,10,24,10,15,9.30
2009,10,24,10,16,9.30
2009,10,24,10,17,9.30
2009,10,24,10,18,9.40
2009,10,24,10,19,9.40
2009,10,24,10,20,9.40
2009,10,24,10,21,9.50
2009,10,24,10,22,9.50
2009,10,24,10,23,9.60
2009,10,24,10,24,9.60
2009,10,24,10,25,9.60
2009,10,24,10,26,9.60
2009,10,24,10,27,9.60
2009,10,24,10,28,9.70
2009,10,24,10,29,9.70
2009,10,24,10,30,9.70
2009,10,24,10,31,9.70
2009,10,24,10,32,9.70
2009,10,24,10,33,9.80
2009,10,24,10,34,9.80
2009,10,24,10,35,9.80
2009,10,24,10,36,9.80
2009,10,24,10,37,9.80
2009,10,24,10,38,9.90
2009,10,24,10,39,9.90
2009,10,24,10,40,9.90
2009,10,24,10,41,9.90
2009,10,24,10,42,9.90
2009,10,24,10,43,9.90
2009,10,24,10,44,9.90
2009,10,24,10,45,9.90
2009,10,24,10,46,9.90
2009,10,24,10,47,10.00
2009,10,24,10,48,10.00
2009,10,24,10,49,10.00
2009,10,24,10,50,10.10
2009,10,24,10,51,10.10
2009,10,24,10,52,10.10
2009,10,24,10,53,10.20
2009,10,24,10,54,10.20
2009,10,24,10,55,10.20
2009,10,24,10,56,10.20
2009,10,24,10,57,10.30
2009,10,24,10,58,10.30
2009,10,24,10,59,10.30
2009,10,24,11,00,10.30
2009,10,24,11,01,10.30
2009,10,24,11,02,10.40
2009,10,24,11,03,10.40
2009,10,24,11,04,10.40
2009,10,24,11,05,10.40
2009,10,24,11,06,10.50
2009,10,24,11,07,10.50
2009,10,24,11,08,10.60
2009,10,24,11,09,10.60
2009,10,24,11,10,10.60
2009,10,24,11,11,10.60
2009,10,24,11,12,10.60
2009,10,24,11,13,10.70
2009,10,24,11,14,10.70
2009,10,24,11,15,10.70
2009,10,24,11,16,10.70
2009,10,24,11,17,10.80
2009,10,24,11,18,10.80
2009,10,24,11,19,10.80
2009,10,24,11,20,10.80
2009,10,24,11,21,10.90
2009,10,24,11,22,10.90
2009,10,24,11,23,10.90
2009,10,24,11,24,11.00
2009,10,24,11,25,11.00
2009,10,24,11,26,11.00
2009,10,24,11,27,11.10
2009,10,24,11,28,11.10
2009,10,24,11,29,11.10
2009,10,24,11,30,11.10
2009,10,24,11,31,11.10
2009,10,24,11,32,11.20
2009,10,24,11,33,11.20
2009,10,24,11,34,11.20
2009,10,24,11,35,11.20
2009,10,24,11,36,11.30
2009,10,24,11,37,11.30
2009,10,24,11,38,11.40
2009,10,24,11,39,11.50
2009,10,24,11,40,11.50
2009,10,24,11,41,11.60
2009,10,24,11,42,11.70
2009,10,24,11,43,11.70
2009,10,24,11,44,11.70
2009,10,24,11,45,11.80
2009,10,24,11,46,11.80
2009,10,24,11,47,11.80
2009,10,24,11,48,11.90
2009,10,24,11,49,12.00
2009,10,24,11,50,12.10
2009,10,24,11,51,12.10
2009,10,24,11,52,12.20
2009,10,24,11,53,12.30
2009,10,24,11,54,12.30
2009,10,24,11,55,12.30
2009,10,24,11,56,12.30
2009,10,24,11,57,12.30
2009,10,24,11,58,12.40
2009,10,24,11,59,12.40
2009,10,24,12,00,12.50
2009,10,24,12,01,12.50
2009,10,24,12,02,12.50
2009,10,24,12,03,12.60
2009,10,24,12,04,12.60
2009,10,24,12,05,12.60
2009,10,24,12,06,12.60
2009,10,24,12,07,12.60
2009,10,24,12,08,12.60
2009,10,24,12,09,12.60
2009,10,24,12,10,12.60
2009,10,24,12,11,12.70
2009,10,24,12,12,12.70
2009,10,24,12,13,12.80
2009,10,24,12,14,12.80
2009,10,24,12,15,12.80
2009,10,24,12,16,12.80
2009,10,24,12,17,12.70
2009,10,24,12,18,12.70
2009,10,24,12,19,12.70
2009,10,24,12,20,12.70
2009,10,24,12,21,12.70
2009,10,24,12,22,12.80
2009,10,24,12,23,12.80
2009,10,24,12,24,12.80
2009,10,24,12,25,12.80
2009,10,24,12,26,12.90
2009,10,24,12,27,12.90
2009,10,24,12,28,12.90
2009,10,24,12,29,12.90
2009,10,24,12,30,12.90
2009,10,24,12,31,13.00
2009,10,24,12,32,13.00
2009,10,24,12,33,13.10
2009,10,24,12,34,13.10
2009,10,24,12,35,13.10
2009,10,24,12,36,13.10
2009,10,24,12,37,13.10
2009,10,24,12,38,13.10
2009,10,24,12,39,13.10
2009,10,24,12,40,13.10
2009,10,24,12,41,13.10
2009,10,24,12,42,13.10
2009,10,24,12,43,13.20
2009,10,24,12,44,13.20
2009,10,24,12,45,13.20
2009,10,24,12,46,13.20
2009,10,24,12,47,13.20
2009,10,24,12,48,13.20
2009,10,24,12,49,13.20
2009,10,24,12,50,13.20
2009,10,24,12,51,13.20
2009,10,24,12,52,13.20
2009,10,24,12,53,13.20
2009,10,24,12,54,13.20
2009,10,24,12,55,13.20
2009,10,24,12,56,13.20
2009,10,24,12,57,13.20
2009,10,24,12,58,13.30
2009,10,24,12,59,13.30
2009,10,24,13,00,13.30
2009,10,24,13,01,13.30
2009,10,24,13,02,13.30
2009,10,24,13,03,13.30
2009,10,24,13,04,13.30
2009,10,24,13,05,13.40
2009,10,24,13,06,13.40
2009,10,24,13,07,13.40
2009,10,24,13,08,13.50
2009,10,24,13,09,13.50
2009,10,24,13,10,13.50
2009,10,24,13,11,13.50
2009,10,24,13,12,13.60
2009,10,24,13,13,13.70
2009,10,24,13,14,13.70
2009,10,24,13,15,13.80
2009,10,24,13,16,13.80
2009,10,24,13,17,13.70
2009,10,24,13,18,13.70
2009,10,24,13,19,13.70
2009,10,24,13,20,13.60
2009,10,24,13,21,13.60
2009,10,24,13,22,13.60
2009,10,24,13,23,13.60
2009,10,24,13,24,13.60
2009,10,24,13,25,13.60
2009,10,24,13,26,13.60
2009,10,24,13,27,13.70
2009,10,24,13,28,13.70
2009,10,24,13,29,13.70
2009,10,24,13,30,13.70
2009,10,24,13,31,13.80
2009,10,24,13,32,13.80
2009,10,24,13,33,13.80
2009,10,24,13,34,13.80
2009,10,24,13,35,13.80
2009,10,24,13,36,13.80
2009,10,24,13,37,13.80
2009,10,24,13,38,13.80
2009,10,24,13,39,13.80
2009,10,24,13,40,13.90
2009,10,24,13,41,13.90
2009,10,24,13,42,14.00
2009,10,24,13,43,14.00
2009,10,24,13,44,14.00
2009,10,24,13,45,13.90
2009,10,24,13,46,13.80
2009,10,24,13,47,13.70
2009,10,24,13,48,13.70
2009,10,24,13,49,13.70
2009,10,24,13,50,13.70
2009,10,24,13,51,13.70
2009,10,24,13,52,13.70
2009,10,24,13,53,13.70
2009,10,24,13,54,13.70
2009,10,24,13,55,13.70
2009,10,24,13,56,13.70
2009,10,24,13,57,13.70
2009,10,24,13,58,13.60
2009,10,24,13,59,13.50
2009,10,24,14,00,13.50
2009,10,24,14,01,13.50
2009,10,24,14,02,13.50
2009,10,24,14,03,13.50
2009,10,24,14,04,13.40
2009,10,24,14,05,13.40
2009,10,24,14,06,13.40
2009,10,24,14,07,13.40
2009,10,24,14,08,13.40
2009,10,24,14,09,13.40
2009,10,24,14,10,13.40
2009,10,24,14,11,13.40
2009,10,24,14,12,13.40
2009,10,24,14,13,13.40
2009,10,24,14,14,13.50
2009,10,24,14,15,13.60
2009,10,24,14,16,13.60
2009,10,24,14,17,13.70
2009,10,24,14,18,13.70
2009,10,24,14,19,13.70
2009,10,24,14,20,13.80
2009,10,24,14,21,13.80
2009,10,24,14,22,13.80
2009,10,24,14,23,13.80
2009,10,24,14,24,13.80
2009,10,24,14,25,13.80
2009,10,24,14,26,13.90
2009,10,24,14,27,13.80
2009,10,24,14,28,13.80
2009,10,24,14,29,13.70
2009,10,24,14,30,13.70
2009,10,24,14,31,13.60
2009,10,24,14,32,13.60
2009,10,24,14,33,13.60
2009,10,24,14,34,13.60
2009,10,24,14,35,13.60
2009,10,24,14,36,13.60
2009,10,24,14,37,13.50
2009,10,24,14,38,13.50
2009,10,24,14,39,13.50
2009,10,24,14,40,13.50
2009,10,24,14,41,13.50
2009,10,24,14,42,13.50
2009,10,24,14,43,13.60
2009,10,24,14,44,13.60
2009,10,24,14,45,13.60
2009,10,24,14,46,13.60
2009,10,24,14,47,13.60
2009,10,24,14,48,13.60
2009,10,24,14,49,13.60
2009,10,24,14,50,13.50
2009,10,24,14,51,13.40
2009,10,24,14,52,13.30
2009,10,24,14,53,13.30
2009,10,24,14,54,13.30
2009,10,24,14,55,13.30
2009,10,24,14,56,13.20
2009,10,24,14,57,13.20
2009,10,24,14,58,13.20
2009,10,24,14,59,13.20
2009,10,24,15,00,13.30
2009,10,24,15,01,13.30
2009,10,24,15,02,13.30
2009,10,24,15,03,13.30
2009,10,24,15,04,13.40
2009,10,24,15,05,13.40
2009,10,24,15,06,13.40
2009,10,24,15,07,13.50
2009,10,24,15,08,13.50
2009,10,24,15,09,13.50
2009,10,24,15,10,13.60
2009,10,24,15,11,13.60
2009,10,24,15,12,13.60
2009,10,24,15,13,13.60
2009,10,24,15,14,13.60
2009,10,24,15,15,13.60
2009,10,24,15,16,13.50
2009,10,24,15,17,13.50
2009,10,24,15,18,13.40
2009,10,24,15,19,13.40
2009,10,24,15,20,13.40
2009,10,24,15,21,13.40
2009,10,24,15,22,13.40
2009,10,24,15,23,13.50
2009,10,24,15,24,13.50
2009,10,24,15,25,13.50
2009,10,24,15,26,13.60
2009,10,24,15,27,13.60
2009,10,24,15,28,13.60
2009,10,24,15,29,13.70
2009,10,24,15,30,13.70
2009,10,24,15,31,13.70
2009,10,24,15,32,13.70
2009,10,24,15,33,13.60
2009,10,24,15,34,13.60
2009,10,24,15,35,13.60
2009,10,24,15,36,13.50
2009,10,24,15,37,13.60
2009,10,24,15,38,13.60
2009,10,24,15,39,13.50
2009,10,24,15,40,13.50
2009,10,24,15,41,13.40
2009,10,24,15,42,13.30
2009,10,24,15,43,13.30
2009,10,24,15,44,13.30
2009,10,24,15,45,13.30
2009,10,24,15,46,13.20
2009,10,24,15,47,13.20
2009,10,24,15,48,13.20
2009,10,24,15,49,13.10
2009,10,24,15,50,13.10
2009,10,24,15,51,13.10
2009,10,24,15,52,13.00
2009,10,24,15,53,12.90
2009,10,24,15,54,12.90
2009,10,24,15,55,12.90
2009,10,24,15,56,12.80
2009,10,24,15,57,12.80
2009,10,24,15,58,12.80
2009,10,24,15,59,12.80
2009,10,24,16,00,12.80
2009,10,24,16,01,12.80
2009,10,24,16,02,12.80
2009,10,24,16,03,12.80
2009,10,24,16,04,12.70
2009,10,24,16,05,12.70
2009,10,24,16,06,12.70
2009,10,24,16,07,12.70
2009,10,24,16,08,12.70
2009,10,24,16,09,12.70
2009,10,24,16,10,12.70
2009,10,24,16,11,12.70
2009,10,24,16,12,12.70
2009,10,24,16,13,12.70
2009,10,24,16,14,12.70
2009,10,24,16,15,12.70
2009,10,24,16,16,12.70
2009,10,24,16,17,12.70
2009,10,24,16,18,12.70
2009,10,24,16,19,12.80
2009,10,24,16,20,12.80
2009,10,24,16,21,12.80
2009,10,24,16,22,12.80
2009,10,24,16,23,12.80
2009,10,24,16,24,12.90
2009,10,24,16,25,12.90
2009,10,24,16,26,12.90
2009,10,24,16,27,12.90
2009,10,24,16,28,13.00
2009,10,24,16,29,13.00
2009,10,24,16,30,13.00
2009,10,24,16,31,13.10
2009,10,24,16,32,13.10
2009,10,24,16,33,13.20
2009,10,24,16,34,13.20
2009,10,24,16,35,13.20
2009,10,24,16,36,13.20
2009,10,24,16,37,13.20
2009,10,24,16,38,13.10
2009,10,24,16,39,13.10
2009,10,24,16,40,13.10
2009,10,24,16,41,13.10
2009,10,24,16,42,13.00
2009,10,24,16,43,13.00
2009,10,24,16,44,13.00
2009,10,24,16,45,13.00
2009,10,24,16,46,13.00
2009,10,24,16,47,13.00
2009,10,24,16,48,12.90
2009,10,24,16,49,12.90
2009,10,24,16,50,12.80
2009,10,24,16,51,12.80
2009,10,24,16,52,12.80
2009,10,24,16,53,12.80
2009,10,24,16,54,12.80
2009,10,24,16,55,12.80
2009,10,24,16,56,12.80
2009,10,24,16,57,12.70
2009,10,24,16,58,12.70
2009,10,24,16,59,12.70
2009,10,24,17,00,12.70
2009,10,24,17,01,12.70
2009,10,24,17,02,12.70
2009,10,24,17,03,12.70
2009,10,24,17,04,12.70
2009,10,24,17,05,12.70
2009,10,24,17,06,12.60
2009,10,24,17,07,12.60
2009,10,24,17,08,12.60
2009,10,24,17,09,12.60
2009,10,24,17,10,12.60
2009,10,24,17,11,12.50
2009,10,24,17,12,12.50
2009,10,24,17,13,12.50
2009,10,24,17,14,12.50
2009,10,24,17,15,12.40
2009,10,24,17,16,12.40
2009,10,24,17,17,12.40
2009,10,24,17,18,12.40
2009,10,24,17,19,12.40
2009,10,24,17,20,12.40
2009,10,24,17,21,12.40
2009,10,24,17,22,12.40
2009,10,24,17,23,12.40
2009,10,24,17,24,12.30
2009,10,24,17,25,12.30
2009,10,24,17,26,12.30
2009,10,24,17,27,12.30
2009,10,24,17,28,12.20
2009,10,24,17,29,12.20
2009,10,24,17,30,12.20
2009,10,24,17,31,12.10
2009,10,24,17,32,12.10
2009,10,24,17,33,12.10
2009,10,24,17,34,12.00
2009,10,24,17,35,12.00
2009,10,24,17,36,12.00
2009,10,24,17,37,11.90
2009,10,24,17,38,11.90
2009,10,24,17,39,11.90
2009,10,24,17,40,11.80
2009,10,24,17,41,11.80
2009,10,24,17,42,11.70
2009,10,24,17,43,11.70
2009,10,24,17,44,11.60
2009,10,24,17,45,11.50
2009,10,24,17,46,11.50